Location: ?????
(55.8833°N, 37.6500°E)
Time: 15:47:04
(UTC+00:00)

USA 116 - Pass Details

Date: 27 February 2020
Orbit: 405 x 834 km, 97.9° (Epoch: 18 November)

Event Time Altitude Azimuth Distance (km) Brightness Sun altitude
Rises 16:11:37 0° 16° (NNE) 2,697 7.1 -11.0°
Reaches altitude 10° 16:13:38 10° 18° (NNE) 1,860 6.2 -11.3°
Maximum altitude 16:17:40 75° 104° (ESE) 639 3.8 -11.9°
Drops below altitude 10° 16:22:14 10° 191° (S) 2,093 6.8 -12.5°
Sets 16:24:36 0° 193° (SSW) 3,067 7.6 -12.9°
